CAPE
0 0 0 0 0 0 0 0 0 0 0 0 0 0 0 0 0 0 0 0 0 0
0 0 0 0 0 0 0 0 0 0 0 0 0 0 0 0 0 0 0 0 0 0
0 0 0 0 0 0 0 0 0 0 0 0 0 0 0 0 0 0 0 0 0 0
0 0 0 0 0 0 0 0 0 0 0 0 0 0 0 0 0 0 0 0 0 0
0 0 0 0 0 0 0 0 0 0 0 0 0 0 0 0 0 0 0 0 0 0
0 0 0 0 0 0 0 0 0 0 0 0 0 0 0 0 0 0 0 0 0 0
0 0 0 0 0 0 0 0 0 0 0 0 0 0 0 0 0 0 0 0 0 0
0 0 0 0 0 0 0 0 0 0 0 0 0 0 0 0 0 0 0 0 0 0
0 0 0 0 0 0 0 0 0 0 0 0 0 0 0 0 0 0 0 0 0 0
0 0 0 0 0 0 0 0 0 0 0 0 0 0 0 0 0 0 0 0 0 0
0 0 0 0 0 0 0 0 0 0 0 0 0 0 0 0 0 0 0 0 0 0
0 0 0 0 0 0 0 0 0 0 0 0 0 0 0 1 0 0 0 0 0 2
0 0 0 0 0 0 0 0 0 0 0 0 0 0 0 2 0 0 0 0 0 10
0 0 0 0 0 0 0 0 0 0 0 0 0 0 1 11 2 0 4 0 0 0
CIN
0 0 0 0 0 0 0 0 0 0 0 0 0 0 0 0 0 0 0 0 0 0
0 0 0 0 0 0 0 0 0 0 0 0 0 0 0 0 0 0 0 0 0 0
0 0 0 0 0 0 0 0 0 0 0 0 0 0 0 0 0 0 0 0 0 0
0 0 0 0 0 0 0 0 0 0 0 0 0 0 0 0 0 0 0 0 0 0
0 0 0 0 0 0 0 0 0 0 0 0 0 0 0 0 0 0 0 0 0 0
0 0 0 0 0 0 0 0 0 0 0 0 0 0 0 0 0 0 0 0 0 0
0 0 0 0 0 0 0 0 0 0 0 0 0 0 0 0 0 0 0 0 0 0
0 0 0 0 0 0 0 0 0 0 0 0 0 0 0 0 0 0 0 0 0 0
0 0 0 0 0 0 0 0 0 0 0 0 0 0 0 0 0 0 0 0 0 0
0 0 0 0 0 0 0 0 0 0 0 0 0 0 0 0 0 0 0 0 0 0
0 0 0 0 0 0 0 0 0 0 0 0 0 0 0 0 0 0 0 0 0 0
0 0 0 0 0 0 0 0 0 0 0 0 0 0 0 0 0 0 0 0 0 -4
0 0 0 0 0 0 0 0 0 0 0 0 0 0 0 -1 0 0 0 0 -2 -0
0 0 0 0 0 0 0 0 0 0 0 0 0 0 0 0 -4 0 -5 -0 0 0
Wind_Speed
8 6 5 5 4 4 3 2 2 3 4 5 5 5 5 3 3 4 4 6 4 3
7 7 6 7 5 3 3 2 4 3 4 5 5 5 5 4 5 5 3 5 4 4
7 7 6 6 6 5 3 3 4 5 5 5 5 5 5 4 5 5 4 4 5 4
7 6 6 5 5 4 3 4 4 4 5 5 6 6 5 6 6 5 5 5 5 6
7 6 6 5 4 3 4 4 4 5 5 6 6 6 6 6 6 6 6 6 6 7
6 6 5 4 4 4 4 4 5 5 6 6 6 6 7 6 6 7 7 6 6 8
6 6 5 4 4 4 4 5 6 6 6 5 6 6 6 6 7 7 6 7 7 8
5 5 4 3 3 4 5 5 5 5 6 6 6 6 10 7 6 7 7 7 7 8
6 5 4 3 4 5 5 5 5 6 6 7 6 18 20 18 10 7 7 9 9 9
5 4 4 4 4 5 5 5 6 6 6 7 7 18 21 22 9 6 7 8 9 10
5 4 3 3 4 5 3 4 5 6 6 6 6 19 21 23 8 8 9 8 9 8
4 3 2 3 4 4 3 4 4 5 6 6 6 16 20 18 9 10 10 10 8 12
4 2 3 3 4 2 3 5 4 6 6 10 7 14 20 18 9 11 10 10 9 17
3 2 1 2 2 4 5 5 5 5 6 6 7 8 19 21 11 10 10 10 10 10
Wind_Direction
100 105 104 113 106 98 100 102 64 51 39 24 18 10 7 344 331 333 323 326 327 304
103 103 105 98 94 91 80 85 56 45 32 18 11 1 351 334 323 321 310 311 319 300
108 101 103 96 96 91 75 50 38 23 16 4 354 341 337 321 307 310 308 301 305 296
106 103 98 97 93 92 74 42 28 13 360 345 329 321 320 308 296 314 294 291 289 290
108 106 102 98 95 81 56 26 12 356 342 328 320 318 319 308 310 294 290 284 285 280
112 109 106 99 73 53 34 9 356 352 339 327 322 317 303 291 285 281 277 276 272 273
119 116 106 89 65 39 15 5 356 344 327 322 316 301 292 288 282 283 277 267 263 271
119 104 98 73 43 20 17 2 347 339 328 321 317 323 323 312 299 289 281 277 277 282
112 108 88 55 26 19 4 347 339 337 323 316 325 327 332 334 323 311 302 304 300 293
119 105 73 45 23 1 339 336 333 324 320 318 312 333 337 334 330 329 308 302 302 306
112 91 58 30 5 335 325 330 317 310 315 308 310 340 339 333 329 315 303 287 294 299
110 87 41 2 343 314 314 311 296 299 301 310 307 333 335 331 320 309 303 302 303 300
117 94 18 340 323 291 292 288 300 304 303 319 314 310 328 328 314 314 309 312 295 305
89 37 349 336 321 310 308 307 308 299 306 303 295 294 318 325 322 314 318 312 321 314